LSP Weather Reports


Display with metric or nautical units.
time (UTC)temp
F
wind
direction
speed
MPH
gust
MPH
rain 1hr
in
rain 24hr
in
rain mn
in
humidity
%
barometer
mb
20260504201553 69 18 1.0 13.0 0.00 0.00 0.00 26 1004.0
20260504200054 68 284 5.0 19.0 0.00 0.00 0.00 24 1004.3
20260504194554 69 351 5.0 13.0 0.00 0.00 0.00 25 1004.4
20260504193058 68 355 6.0 14.0 0.00 0.00 0.00 25 1004.5
20260504191600 67 335 6.0 16.0 0.00 0.00 0.00 26 1004.5
20260504184555 67 348 7.0 15.0 0.00 0.00 0.00 26 1004.9
20260504183052 66 323 3.0 11.0 0.00 0.00 0.00 27 1004.8
20260504181601 66 301 4.0 15.0 0.00 0.00 0.00 28 1004.9
20260504180114 66 5 8.0 17.0 0.00 0.00 0.00 26 1004.9
20260504174553 67 338 4.0 15.0 0.00 0.00 0.00 27 1004.8
20260504173054 66 277 5.0 17.0 0.00 0.00 0.00 27 1004.9
20260504171558 66 342 7.0 18.0 0.00 0.00 0.00 26 1004.8
20260504160107 64 294 4.0 17.0 0.00 0.00 0.00 26 1005.0
20260504081552 44 0 0.0 3.0 0.00 0.02 0.00 51 1007.6
20260504050105 44 286 2.0 8.0 0.00 0.02 0.00 41 1007.4
20260504044559 44 298 3.0 9.0 0.00 0.02 0.00 42 1007.4
20260504043055 44 182 3.0 10.0 0.00 0.02 0.00 43 1007.5
20260504041600 43 274 3.0 9.0 0.00 0.02 0.00 45 1007.4
20260504040058 42 272 1.0 6.0 0.00 0.02 0.00 48 1007.3
20260504034557 41 0 1.0 8.0 0.00 0.02 0.02 50 1007.3
20260504033053 39 278 1.0 3.0 0.00 0.02 0.02 54 1007.3
20260504031552 38 278 1.0 6.0 0.00 0.02 0.02 57 1007.3
20260504030057 37 0 0.0 0.0 0.00 0.02 0.02 62 1007.4
20260504024608 37 0 0.0 0.0 0.00 0.03 0.02 62 1007.5
20260504023055 38 0 0.0 4.0 0.00 0.03 0.02 60 1007.4
20260504021557 40 0 0.0 4.0 0.00 0.03 0.02 58 1007.3
20260504020054 40 0 0.0 3.0 0.00 0.03 0.02 56 1007.4
20260504014604 41 0 0.0 4.0 0.00 0.03 0.02 53 1007.3
20260504013057 41 0 0.0 4.0 0.00 0.03 0.02 55 1007.4
20260504011555 41 0 0.0 3.0 0.00 0.03 0.02 54 1007.4
20260504004552 44 309 0.0 5.0 0.00 0.03 0.02 47 1007.0
20260504003053 45 0 2.0 9.0 0.00 0.03 0.02 40 1006.8
20260504001552 46 352 3.0 9.0 0.00 0.03 0.02 38 1006.8
20260504000137 46 327 2.0 9.0 0.00 0.03 0.02 38 1006.4
20260503234602 47 351 3.0 12.0 0.00 0.05 0.02 37 1006.3
20260503233053 47 355 5.0 10.0 0.00 0.05 0.02 39 1005.9
20260503231553 48 329 2.0 9.0 0.00 0.05 0.02 40 1005.9
20260503230051 48 355 6.0 15.0 0.00 0.05 0.02 35 1005.8
20260503224549 49 351 1.0 10.0 0.00 0.09 0.02 42 1005.8
20260503223054 49 311 4.0 14.0 0.00 0.09 0.02 41 1005.8
20260503221558 49 338 5.0 12.0 0.00 0.09 0.02 40 1005.5
20260503220056 49 348 4.0 13.0 0.00 0.09 0.02 38 1005.5
20260503214551 48 350 4.0 8.0 0.00 0.10 0.02 41 1005.4
20260503213051 49 9 6.0 20.0 0.00 0.10 0.02 37 1005.5
20260503211618 48 319 4.0 11.0 0.00 0.10 0.02 39 1005.5
20260503210051 49 360 6.0 13.0 0.00 0.10 0.02 38 1005.4
20260503204553 48 351 2.0 7.0 0.00 0.10 0.02 46 1005.1
20260503203106 48 20 2.0 6.0 0.00 0.10 0.02 44 1005.0